This is the latest recevied weather packets stored in our database for station/object K8MUD. If no packets are shown the sender has not sent any weather packets the latest 10 day(s).
| Time | Temp. | Humidity | Pressure | Rain* | Wind** | Luminosity | Snow |
|---|---|---|---|---|---|---|---|
| 1777665439 | 8.89° C | 61% | 1013.4 hPa | 0 mm | - | - | - |
| 1777665139 | 9.44° C | 60% | 1013.3 hPa | 0 mm | - | - | - |
| 1777664839 | 9.44° C | 60% | 1013.3 hPa | 0 mm | - | - | - |
| 1777664539 | 9.44° C | 60% | 1013.2 hPa | 0 mm | - | - | - |
| 1777664239 | 9.44° C | 59% | 1013.1 hPa | 0 mm | - | - | - |
| 1777663939 | 8.89° C | 59% | 1013.1 hPa | 0 mm | - | - | - |
| 1777663638 | 8.89° C | 59% | 1013.1 hPa | 0 mm | - | - | - |
| 1777663338 | 8.89° C | 60% | 1013.1 hPa | 0 mm | - | - | - |
| 1777663038 | 8.89° C | 62% | 1013.1 hPa | 0 mm | - | - | - |
| 1777662738 | 8.89° C | 61% | 1013.1 hPa | 0 mm | - | - | - |
| 1777662438 | 8.89° C | 61% | 1013.2 hPa | 0 mm | - | - | - |
| 1777662138 | 8.89° C | 61% | 1013 hPa | 0 mm | - | - | - |
| 1777661838 | 8.89° C | 65% | 1013.1 hPa | 0 mm | - | - | - |
| 1777661538 | 8.89° C | 68% | 1013.1 hPa | 0 mm | - | - | - |
| 1777661238 | 8.89° C | 67% | 1012.9 hPa | 0 mm | - | - | - |
| 1777660938 | 8.89° C | 68% | 1012.9 hPa | 0 mm | - | - | - |
| 1777660638 | 8.89° C | 68% | 1012.8 hPa | 0 mm | - | - | - |
| 1777660338 | 8.89° C | 68% | 1013 hPa | 0 mm | - | - | - |
| 1777660038 | 8.89° C | 67% | 1012.9 hPa | 0 mm | - | - | - |
| 1777659738 | 8.89° C | 67% | 1013 hPa | 0 mm | - | - | - |
| 1777659437 | 8.89° C | 67% | 1012.9 hPa | 0 mm | - | - | - |
| 1777659137 | 9.44° C | 67% | 1012.8 hPa | 0 mm | - | - | - |
| 1777658837 | 8.89° C | 68% | 1012.6 hPa | 0 mm | - | - | - |
| 1777658537 | 8.89° C | 69% | 1012.5 hPa | 0 mm | - | - | - |
| 1777658237 | 8.89° C | 70% | 1012.6 hPa | 0 mm | - | - | - |
* Rain latest hour (hover to see other rain measurements)
** Current wind speed in m/s (hover to see current wind gust speed)